TimeAEST,TemperatureF,Dew PointF,Humidity,Sea Level PressureIn,VisibilityMPH,Wind Direction,Wind SpeedMPH,Gust SpeedMPH,PrecipitationIn,Events,Conditions,WindDirDegrees,DateUTC
12:00 AM,57,54,84,30.43,,SW,8.1,,,,,220,2013-07-11 14:00:00
12:00 AM,57.2,53.6,88,30.42,6.2,SW,8.1,-,N/A,,Scattered Clouds,220,2013-07-11 14:00:00
12:30 AM,57.2,53.6,88,30.42,6.2,SW,10.4,-,N/A,,Unknown,220,2013-07-11 14:30:00
1:00 AM,57.2,53.6,88,30.42,6.2,SSW,9.2,-,N/A,,Mostly Cloudy,210,2013-07-11 15:00:00
1:30 AM,57.2,53.6,88,30.42,6.2,SSW,9.2,-,N/A,,Scattered Clouds,210,2013-07-11 15:30:00
2:00 AM,57.2,53.6,88,30.42,6.2,South,6.9,-,N/A,,Overcast,180,2013-07-11 16:00:00
2:30 AM,57.2,53.6,88,30.39,6.2,SSW,8.1,-,N/A,,Overcast,210,2013-07-11 16:30:00
3:00 AM,57,54,85,30.41,,SSW,6.9,,,,Overcast,210,2013-07-11 17:00:00
3:00 AM,57.2,53.6,88,30.39,6.2,SSW,6.9,-,N/A,,Overcast,210,2013-07-11 17:00:00
3:30 AM,57.2,53.6,88,30.39,6.2,SSW,9.2,-,N/A,,Overcast,210,2013-07-11 17:30:00
4:00 AM,57.2,53.6,88,30.39,6.2,South,8.1,-,N/A,,Overcast,190,2013-07-11 18:00:00
4:30 AM,57.2,53.6,88,30.39,6.2,SSW,10.4,-,N/A,,Overcast,210,2013-07-11 18:30:00
5:00 AM,57.2,53.6,88,30.39,6.2,SW,9.2,-,N/A,,Overcast,220,2013-07-11 19:00:00
5:30 AM,57.2,53.6,88,30.39,6.2,SSW,10.4,-,N/A,,Mostly Cloudy,210,2013-07-11 19:30:00
6:00 AM,57,52,79,30.40,,South,6.9,,,,,190,2013-07-11 20:00:00
6:00 AM,57.2,51.8,82,30.39,6.2,South,6.9,-,N/A,,Mostly Cloudy,190,2013-07-11 20:00:00
6:30 AM,57.2,53.6,88,30.39,6.2,SSW,8.1,-,N/A,,Overcast,210,2013-07-11 20:30:00
7:00 AM,57.2,53.6,88,30.39,6.2,South,8.1,-,N/A,,Overcast,190,2013-07-11 21:00:00
7:30 AM,59.0,53.6,82,30.39,6.2,SSW,9.2,-,N/A,,Overcast,200,2013-07-11 21:30:00
8:00 AM,59.0,53.6,82,30.42,6.2,SSW,9.2,-,N/A,,Overcast,210,2013-07-11 22:00:00
8:30 AM,59.0,53.6,82,30.42,6.2,SSW,8.1,-,N/A,,Overcast,200,2013-07-11 22:30:00
9:00 AM,61,54,72,30.43,,SSW,8.1,,,,,210,2013-07-11 23:00:00
9:00 AM,60.8,53.6,77,30.42,6.2,SSW,8.1,-,N/A,,Overcast,210,2013-07-11 23:00:00
9:30 AM,62.6,55.4,77,30.42,6.2,SSW,9.2,-,N/A,,Overcast,210,2013-07-11 23:30:00
10:00 AM,62.6,53.6,72,30.42,6.2,SSW,10.4,-,N/A,,Overcast,210,2013-07-12 00:00:00
10:30 AM,64.4,55.4,73,30.39,6.2,SSW,9.2,-,N/A,,Overcast,210,2013-07-12 00:30:00
11:00 AM,66.2,53.6,64,30.39,6.2,South,11.5,-,N/A,,Mostly Cloudy,170,2013-07-12 01:00:00
11:30 AM,66.2,55.4,68,30.39,6.2,South,11.5,-,N/A,,Overcast,180,2013-07-12 01:30:00
12:00 PM,66,54,56,30.39,,SSE,10.4,,,,,160,2013-07-12 02:00:00
12:00 PM,66.2,53.6,64,30.39,6.2,SSE,10.4,-,N/A,,Overcast,160,2013-07-12 02:00:00
12:30 PM,66.2,55.4,68,30.36,6.2,South,8.1,-,N/A,,Overcast,180,2013-07-12 02:30:00
1:00 PM,66.2,53.6,64,30.33,6.2,South,8.1,-,N/A,,Overcast,170,2013-07-12 03:00:00
1:30 PM,66.2,53.6,64,30.33,6.2,SE,9.2,-,N/A,,Mostly Cloudy,140,2013-07-12 03:30:00
2:00 PM,64.4,53.6,68,30.33,6.2,SSE,8.1,-,N/A,,Scattered Clouds,160,2013-07-12 04:00:00
2:30 PM,68.0,53.6,60,30.33,6.2,SE,12.7,-,N/A,,Unknown,130,2013-07-12 04:30:00
3:00 PM,66,53,54,30.33,,ESE,11.5,,,,,110,2013-07-12 05:00:00
3:00 PM,66.2,53.6,64,30.33,6.2,ESE,11.5,-,N/A,,Mostly Cloudy,110,2013-07-12 05:00:00
3:30 PM,64.4,53.6,68,30.30,6.2,SSE,8.1,-,N/A,,Overcast,150,2013-07-12 05:30:00
4:00 PM,64.4,57.2,77,30.33,6.2,SE,10.4,-,N/A,,Overcast,130,2013-07-12 06:00:00
4:30 PM,64.4,55.4,73,30.33,6.2,SE,10.4,-,N/A,,Overcast,130,2013-07-12 06:30:00
5:00 PM,62.6,55.4,77,30.33,6.2,SE,6.9,-,N/A,,Overcast,130,2013-07-12 07:00:00
5:30 PM,60.8,55.4,82,30.33,6.2,SSE,5.8,-,N/A,,Overcast,150,2013-07-12 07:30:00
6:00 PM,60,56,81,30.34,,South,3.5,,,,Overcast,170,2013-07-12 08:00:00
6:00 PM,60.8,55.4,82,30.33,6.2,South,3.5,-,N/A,,Overcast,170,2013-07-12 08:00:00
6:30 PM,59.0,55.4,88,30.33,6.2,WSW,4.6,-,N/A,,Overcast,240,2013-07-12 08:30:00
7:00 PM,59.0,55.4,88,30.33,6.2,WSW,5.8,-,N/A,,Mostly Cloudy,250,2013-07-12 09:00:00
7:30 PM,57.2,55.4,94,30.33,6.2,SW,5.8,-,N/A,,Mostly Cloudy,230,2013-07-12 09:30:00
8:00 PM,57.2,55.4,94,30.33,6.2,WSW,5.8,-,N/A,,Mostly Cloudy,240,2013-07-12 10:00:00
8:30 PM,57.2,55.4,94,30.33,6.2,SW,5.8,-,N/A,,Unknown,230,2013-07-12 10:30:00
9:00 PM,56,54,90,30.35,,WSW,4.6,,,,,240,2013-07-12 11:00:00
9:00 PM,57.2,53.6,88,30.33,6.2,WSW,4.6,-,N/A,,Unknown,240,2013-07-12 11:00:00
9:30 PM,55.4,53.6,94,30.33,6.2,SW,5.8,-,N/A,,Unknown,220,2013-07-12 11:30:00
10:00 PM,55.4,53.6,94,30.33,6.2,SW,5.8,-,N/A,,Unknown,230,2013-07-12 12:00:00
10:30 PM,53.6,51.8,94,30.33,6.2,SSW,4.6,-,N/A,,Unknown,210,2013-07-12 12:30:00
11:00 PM,53.6,51.8,94,30.33,6.2,SW,1.2,-,N/A,,Unknown,220,2013-07-12 13:00:00
11:30 PM,53.6,51.8,94,30.33,6.2,SW,4.6,-,N/A,,Unknown,230,2013-07-12 13:30:00